Regional Weather Roundup
Issued by NWS State College, PA

Home | Current Version | Previous Version | Text Only | Print | Product List | Glossary Off
Versions: 1 2 3 4 5 6 7 8 9 10 11 12 13 14 15 16 17 18 19 20 21 22 23 24 25 26 27 28 29 30 31 32 33 34 35 36 37 38 39 40 41 42 43 44 45 46 47 48 49 50

466
ASUS41 KCTP 202010
RWRCTP
NATIONAL WEATHER SERVICE STATE COLLEGE PA
400 PM EDT WED SEP 20 2017

Note: "fair" indicates few or no clouds below 12,000 feet with no
significant weather and/or obstructions to visibility.

* = STATION THAT DOES NOT REPORT PRECIPITATION /E.G. RAIN...SNOW...ETC/
    THUNDER OR FOG.

PAZ002>004-007>009-013>016-020>023-029>032-202100-
WESTERN PENNSYLVANIA

CITY           SKY/WX    TMP DP  RH WIND       PRES   REMARKS
ERIE           SUNNY     82  61  48 NE6       29.99F
MEADVILLE      MOSUNNY   84  59  42 N6        30.02F
FRANKLIN*      MOSUNNY   80  61  52 VRB3      30.03F
NEW CASTLE     FAIR      83  63  50 CALM      30.01F
BEAVER COUNTY  PTSUNNY   79  63  57 CALM      30.02F
BUTLER*        CLOUDY    79  64  60 CALM      30.02F
PITTSBURGH INT CLOUDY    80  63  55 NE6       30.01F
PITTSBURGH     CLOUDY    80  62  54 NW7       30.01F
INDIANA*       MOSUNNY   81  61  50 NW6G12    30.05S
LATROBE        MOSUNNY   81  59  47 VRB3      30.02F
WASHINGTON CO* CLOUDY    81  64  57 W8        30.02S
$$

PAZ004>006-010>012-017>019-024>028-033>037-041-042-045-046-049>053-202100-
CENTRAL PENNSYLVANIA

CITY           SKY/WX    TMP DP  RH WIND       PRES   REMARKS
BRADFORD       SUNNY     79  56  45 N5        30.05F
DUBOIS         PTSUNNY   79  57  46 CALM      30.03F
CLEARFIELD     SUNNY     83  55  38 VRB3      30.02F
JOHNSTOWN      SUNNY     77  55  46 NW6       30.06F
ALTOONA        SUNNY     82  56  40 N10       30.02F
STATE COLLEGE  SUNNY     82  52  34 W5        30.00S
WILLIAMSPORT   MOSUNNY   88  62  41 N8        29.94S
SELINSGROVE    SUNNY     85  63  47 N7        29.95F
FT INDIANTOWN  MOSUNNY   84  62  47 N5        29.94S
CAPITAL CITY   SUNNY     86  57  37 NW9       29.94S
HARRISBURG     MOSUNNY   85  58  39 N9        29.93S
YORK           SUNNY     84  61  45 N9        29.94F
$$

PAZ038>040-043-044-047-048-054-055-060>062-067>071-202100-
EASTERN PENNSYLVANIA

CITY           SKY/WX    TMP DP  RH WIND       PRES   REMARKS
SCRANTON       SUNNY     84  60  44 N14       29.96S
MOUNT POCONO   CLOUDY    79  58  48 N14       29.99S
ALLENTOWN      SUNNY     85  62  46 NE9       29.90F
QUAKERTOWN*    CLEAR     82  64  54 NE9       29.92F
READING        SUNNY     86  64  47 N14       29.90S
LANCASTER      SUNNY     85  66  53 NW10      29.92F
COATESVILLE    MOCLDY    82  64  54 N10       29.94S
POTTSTOWN      MOSUNNY   85  63  47 NE7       29.91
BLUE BELL      SUNNY     81  64  57 N8        29.91S
DOYLESTOWN     MOSUNNY   85  66  53 N12       29.89F
WILLOW GROVE   NOT AVBL
NORTH PHILA    MOSUNNY   85  67  54 N14       29.90S
PHILADELPHIA   MOSUNNY   86  62  44 N13       29.87F
$$




USA.gov is the U.S. government's official web portal to all federal, state and local government web resources and services.